SCP
0 0 0 0 0 0 0 0 0 0 0 -0 -0 -0 -0 -0 -0 -0 -0 0 0 -0 0 -0 0 -0 -0 -0 -0 0 -0 -0 -0 -0 0 0 0 -0 -0 -0 0 -0 -0
0 0 0 0 0 0 0 0 0 0 0 0 0 0 0 -0 0 0 0 0 0 0 0 0 0 0 -0 -0 -0 0 0 0 0 0 0 0 0 0 0 0 0 0 -0
0 0 0 0 0 0 0 0 0 0 0 0 0 0 0 0 0 0 0 0 0 0 0 0 0 0 0 0 0 0 0 0 0 0 -0 0 0 0 0 0 -0 0 0
0 0 0 0 0 0 0 0 0 0 0 0 0 0 0 0 0 0 0 0 0 0 0 0 0 0 0 0 0 0 0 0 0 0 0 0 0 0 0 -0 -0 -0 0
0 0 0 0 0 0 0 0 0 0 0 0 0 0 0 0 0 0 0 0 0 0 0 0 0 0 0 0 0 0 0 0 0 0 0 0 0 0 0 -0 -0 -0 0
0 0 1 1 1 0 0 0 0 0 0 0 0 0 0 0 0 0 0 0 0 0 0 0 0 0 0 0 0 0 0 0 -0 0 0 0 0 0 0 0 0 0 0
0 1 0 1 1 1 1 0 0 0 0 0 0 0 0 0 0 0 0 0 0 0 0 0 0 0 0 0 0 0 0 0 -0 0 0 0 0 0 0 0 0 0 0
0 0 0 0 0 0 0 0 0 0 0 0 0 0 0 0 0 0 0 0 0 0 0 0 0 0 0 0 0 0 0 -0 -0 0 0 0 0 0 0 0 0 0 0
0 0 0 0 0 0 0 0 0 0 0 0 0 0 0 0 0 0 0 0 0 0 0 0 0 0 0 0 0 0 0 0 -0 0 0 0 0 0 0 0 0 0 0
0 0 0 0 0 0 0 0 0 0 0 0 0 0 0 0 0 0 0 0 0 0 0 0 0 0 0 0 0 0 0 0 -0 0 0 0 0 0 0 0 0 0 0
0 0 0 0 0 0 0 0 0 0 0 0 0 0 0 0 0 0 0 0 0 0 0 0 0 0 0 0 0 0 0 0 0 0 0 0 0 0 0 0 0 0 0
0 0 0 0 0 0 0 0 0 0 0 0 0 0 0 0 0 0 0 0 0 0 0 0 0 0 0 0 0 0 0 0 0 0 0 0 0 0 0 0 0 0 0
0 0 0 0 0 0 0 0 0 0 0 0 0 0 0 0 0 0 0 0 0 0 0 0 0 0 0 0 0 0 0 0 0 0 0 0 0 -0 0 0 0 0 0
0 0 0 0 0 0 0 0 0 0 0 0 0 0 0 0 0 0 0 0 0 0 0 0 0 0 0 0 0 0 0 0 0 0 0 0 0 0 0 0 0 0 0
0 0 0 0 0 0 0 0 0 0 0 0 0 0 0 0 0 0 0 0 0 0 0 0 0 0 0 0 0 0 0 0 0 0 0 0 0 0 0 0 0 0 0
0 0 0 0 0 0 0 0 0 0 0 0 0 0 0 0 0 0 0 0 0 0 0 0 0 0 0 0 0 0 0 0 0 0 0 0 0 0 0 0 0 0 0
0 0 0 0 0 0 0 0 0 0 0 0 0 0 0 0 0 0 0 0 0 0 0 0 0 0 0 0 0 0 0 0 0 0 0 0 0 0 0 0 0 0 0
0 0 0 0 0 0 0 0 0 0 0 0 0 0 0 0 0 0 0 0 0 0 0 0 0 0 0 0 0 0 0 0 0 0 0 0 0 0 0 0 0 0 0
0 0 0 0 0 0 0 0 0 0 0 0 0 0 0 0 0 0 0 0 0 0 0 0 0 0 0 0 0 0 0 0 0 0 0 0 0 0 0 0 0 0 0
0 0 0 0 0 0 0 0 0 0 0 0 0 0 0 0 0 0 0 0 0 0 0 0 0 0 0 0 0 0 0 0 0 0 0 0 0 0 0 0 0 0 0
0 0 0 0 0 0 0 0 0 0 0 0 0 0 0 0 0 0 0 0 0 0 0 0 0 0 0 0 0 0 0 0 0 0 0 0 0 0 0 0 0 1 0
0 0 0 0 0 0 0 0 0 0 0 0 0 0 0 0 0 0 0 0 0 0 0 0 0 0 0 0 0 0 0 0 0 0 0 0 0 0 0 0 0 0 0
0 0 0 0 0 0 0 0 0 0 0 0 0 0 0 0 0 0 0 0 0 0 0 0 0 0 0 0 0 0 0 0 0 0 0 0 0 0 0 0 0 0 0
0 0 0 0 0 0 0 0 0 0 0 0 0 0 0 0 0 0 0 0 0 0 0 0 0 0 0 0 0 0 0 0 0 0 0 0 0 0 0 0 0 0 0
0 0 0 0 0 0 0 0 0 0 0 0 0 0 0 0 0 0 0 0 0 0 0 0 0 0 0 0 0 0 0 0 0 0 0 0 0 0 0 0 0 0 0
0 0 0 0 0 0 0 0 0 0 0 0 0 0 0 0 0 0 0 0 0 0 0 0 0 0 0 0 0 0 0 0 0 0 0 0 0 0 0 0 0 0 0
Wind_Speed_500mb
21 22 22 21 23 24 22 24 27 28 26 23 19 17 16 18 17 14 13 12 13 13 10 5 7 10 11 10 11 14 17 19 16 18 17 18 19 19 23 26 25 24 25
24 22 21 23 24 25 24 23 24 24 25 23 21 20 19 15 14 12 11 9 15 12 7 7 11 13 16 15 14 17 16 16 15 15 14 14 15 18 22 24 26 24 24
24 21 20 24 25 25 25 22 22 22 21 21 20 16 14 13 13 12 10 12 13 10 8 11 12 14 14 13 11 10 13 13 13 13 14 9 8 14 19 21 17 18 20
25 22 20 24 24 24 23 21 21 20 17 16 15 14 13 13 13 11 10 11 13 11 8 8 8 10 8 8 8 8 7 9 11 12 8 8 6 12 17 21 21 19 20
26 23 21 23 25 23 21 21 19 18 16 14 13 13 14 13 11 10 9 11 15 13 8 6 4 4 5 4 4 6 7 7 7 9 10 6 8 10 17 22 20 21 17
27 22 22 22 23 22 20 19 18 18 17 15 13 12 11 11 11 10 9 11 14 14 7 10 5 2 2 3 2 4 6 8 7 5 6 4 4 15 15 24 20 16 13
27 24 24 25 27 25 23 19 19 19 17 15 13 11 10 10 11 10 10 11 13 12 9 9 9 7 4 2 3 3 5 8 7 3 2 3 1 10 19 20 14 13 11
25 26 19 21 23 23 23 21 21 22 20 19 16 12 11 11 11 10 10 10 12 13 12 10 10 11 10 5 6 4 6 8 7 5 3 1 10 10 11 15 12 15 15
25 22 21 22 24 24 23 23 24 21 21 22 17 15 13 12 11 10 10 10 11 12 14 13 13 15 16 12 8 8 8 9 9 9 6 3 10 12 13 15 15 16 13
18 15 13 11 17 18 22 24 29 32 25 19 17 15 13 11 13 14 10 12 12 13 15 15 16 18 18 20 13 12 11 11 10 11 9 9 7 9 11 16 15 16 15
12 10 8 6 4 8 7 5 3 3 25 16 16 15 12 12 13 12 14 15 16 17 17 17 18 19 20 23 21 17 14 14 16 16 14 17 10 7 8 16 20 19 16
10 9 8 9 8 6 6 8 7 3 3 7 10 10 11 13 16 15 15 16 19 19 20 22 21 21 24 23 27 25 21 18 19 20 20 20 15 12 12 16 19 19 21
12 12 12 12 12 11 9 7 5 4 5 7 8 10 15 17 20 21 21 21 22 23 22 24 26 26 26 30 32 26 29 25 20 21 24 27 22 19 19 18 23 22 22
12 11 11 12 12 13 11 9 9 6 4 2 3 7 11 14 17 18 20 21 22 22 23 24 27 28 30 32 35 36 36 33 32 26 24 29 32 26 28 26 22 32 27
17 19 20 22 22 21 17 15 13 9 6 3 3 6 11 14 17 19 21 23 24 25 26 28 28 29 31 35 36 38 40 42 42 39 36 34 36 36 34 37 31 35 37
26 30 32 32 31 27 24 19 15 11 6 5 7 10 12 14 16 17 20 22 24 26 28 29 30 32 33 34 34 37 41 46 47 48 44 39 38 42 41 38 37 30 44
36 37 35 31 26 19 14 8 5 7 10 13 16 18 21 22 25 27 27 27 27 27 26 27 28 29 30 33 37 40 43 42 49 44 52 53 49 45 48 45 38 36 43
37 34 29 24 18 11 4 3 10 13 15 16 18 20 21 24 26 29 32 34 37 36 35 34 33 33 31 32 33 36 43 48 47 44 47 54 52 49 57 53 48 43 46
33 28 23 17 11 5 5 12 16 18 19 20 22 24 26 27 29 30 32 34 37 40 41 41 41 39 38 36 35 35 38 40 46 48 49 48 49 56 62 61 52 49 47
32 26 19 13 7 7 12 18 20 20 22 23 25 26 28 29 31 32 33 34 35 36 40 41 42 42 43 42 39 40 40 42 42 43 46 46 50 60 66 65 61 53 52
32 23 17 12 9 12 16 18 21 25 28 29 29 29 29 30 30 29 29 30 30 32 36 41 42 43 43 45 43 40 45 46 44 42 45 49 50 49 54 67 61 63 54
32 25 18 12 12 15 18 23 29 34 36 36 35 31 29 29 31 31 31 30 28 29 28 30 36 42 40 40 31 24 22 26 41 42 44 46 51 50 54 62 70 63 58
33 26 18 13 13 16 20 26 30 32 33 32 33 32 29 29 30 32 32 33 32 32 30 27 28 32 37 41 41 32 18 21 19 26 44 52 52 56 60 59 62 67 64
33 25 17 13 13 18 22 27 31 33 34 35 36 37 36 32 32 32 34 34 36 36 36 29 29 31 33 39 41 51 50 36 20 20 23 34 46 53 50 53 55 65 60
32 24 16 13 14 19 24 28 32 34 36 38 40 42 40 37 34 35 35 38 40 41 42 39 35 33 34 39 43 42 50 56 51 51 42 24 27 29 36 44 51 51 58
31 21 14 12 14 18 24 28 33 37 38 37 38 40 37 34 31 27 33 39 43 44 45 44 41 42 38 39 44 49 57 50 58 52 48 51 44 37 38 26 24 35 44
Wind_Direction_500mb
162 164 166 165 164 160 151 145 151 163 161 160 155 151 143 144 142 138 132 120 129 119 111 59 72 105 134 123 109 115 116 117 109 109 117 128 133 128 126 123 115 121 120
160 164 169 170 170 167 164 154 149 154 158 159 154 145 143 147 144 151 137 132 140 129 108 81 88 96 113 114 104 104 113 120 116 110 111 116 138 144 134 130 134 130 123
159 160 166 169 169 171 173 168 159 158 155 158 158 161 162 162 160 160 150 147 146 140 111 95 91 101 114 124 126 116 109 121 118 112 107 113 147 153 161 155 152 146 136
162 157 163 171 168 173 175 175 172 168 167 166 168 168 167 163 163 167 169 168 168 160 136 104 86 85 96 114 137 145 144 127 116 114 89 120 110 167 161 156 155 143 135
170 160 171 171 172 172 176 179 180 176 169 175 171 164 163 166 169 166 172 169 172 172 169 147 121 80 75 88 124 155 163 165 150 101 97 118 140 185 177 172 165 148 144
170 172 164 167 175 170 175 180 177 177 183 184 184 179 169 171 175 178 182 180 186 189 192 198 196 192 67 38 115 164 177 172 147 127 95 111 92 196 174 168 160 157 155
174 165 164 164 178 182 183 188 191 192 192 193 187 190 186 187 188 183 184 190 199 207 213 213 225 234 236 345 301 198 208 204 185 193 144 86 174 164 193 192 202 210 191
192 190 176 179 183 181 186 191 194 194 197 199 202 205 198 199 196 200 202 205 212 215 220 235 245 250 236 265 277 251 233 215 196 216 223 192 235 189 175 204 201 167 170
181 186 188 194 195 198 204 206 205 197 192 200 204 209 219 219 212 214 210 214 217 222 225 231 246 255 248 247 262 268 250 231 202 229 228 273 239 216 210 207 200 195 231
145 156 177 199 221 210 225 226 232 214 211 204 209 219 212 218 222 228 226 230 237 232 234 237 249 249 246 243 254 263 265 251 225 232 236 236 249 229 221 215 202 205 206
160 165 175 182 169 153 186 224 319 53 208 201 219 225 225 241 232 231 240 247 251 254 251 254 251 247 243 241 245 254 261 245 234 232 234 245 253 255 230 213 213 210 205
190 206 219 224 220 217 211 225 230 228 233 209 215 236 246 261 263 252 253 259 262 263 269 261 255 251 237 236 247 246 255 242 239 242 240 240 243 243 225 221 214 212 208
209 221 222 226 221 205 190 175 195 216 227 239 237 232 245 252 257 271 270 269 265 268 266 261 255 252 249 240 234 236 249 254 247 247 243 241 241 241 242 225 222 220 216
185 182 177 167 165 163 160 141 128 129 130 149 249 249 252 259 263 267 266 268 270 272 268 262 259 257 250 246 243 243 251 252 255 247 247 242 241 243 240 243 238 235 231
156 146 139 130 128 126 128 120 113 102 82 49 307 289 282 276 272 271 272 270 270 268 267 269 267 262 258 251 248 248 247 250 251 253 253 249 239 238 244 244 246 241 230
143 133 127 125 120 116 112 107 97 82 53 359 325 308 298 292 287 280 274 272 270 270 271 270 270 270 266 259 251 251 251 252 253 257 255 255 243 236 239 248 250 255 228
142 135 131 130 127 125 118 99 54 350 327 310 299 295 289 284 281 279 277 276 274 274 273 273 274 274 274 268 262 249 254 262 256 265 256 254 244 234 236 244 249 251 234
151 147 145 144 146 147 140 346 333 326 320 311 305 295 287 281 276 274 273 271 270 270 269 269 270 273 275 277 272 266 258 254 256 255 255 244 245 233 231 235 238 239 237
163 162 163 167 177 209 291 321 328 330 327 321 312 303 296 290 285 281 277 272 266 264 262 263 265 267 270 271 270 266 265 259 252 252 255 249 246 233 232 232 236 246 246
176 178 182 195 225 280 313 325 329 329 326 322 314 307 300 291 285 281 278 276 273 271 269 263 262 260 260 261 265 265 264 260 256 250 249 247 246 236 237 233 233 242 246
184 188 200 218 251 296 314 319 325 331 330 326 319 313 305 301 295 288 282 281 278 272 270 265 263 261 262 265 268 271 271 263 258 253 248 244 240 240 240 235 238 244 245
193 198 210 231 274 304 319 329 333 332 329 325 321 319 311 303 296 292 290 287 285 283 280 274 267 262 259 256 257 267 274 276 265 249 248 246 240 242 241 243 237 245 250
194 201 212 244 283 306 322 328 330 327 323 318 314 311 310 304 297 291 285 283 282 287 285 276 268 265 257 259 251 243 261 255 271 253 252 248 247 247 254 256 249 242 245
196 204 221 258 289 311 321 326 329 328 326 321 321 317 315 309 301 293 287 281 278 279 284 278 271 264 258 253 254 246 244 247 256 267 279 264 256 252 257 248 253 248 247
195 203 223 252 290 311 321 327 327 328 326 324 322 318 315 310 297 290 287 284 281 279 280 279 270 265 258 255 250 251 251 248 250 254 265 269 264 273 278 254 249 249 249
194 207 228 264 299 313 322 322 322 325 326 325 326 325 324 322 318 304 285 280 280 278 277 275 272 264 261 257 256 252 249 248 249 246 250 253 260 268 265 273 263 259 252
Wind_Speed_850mb
21 22 22 21 23 24 22 24 27 28 26 23 19 17 16 18 17 14 13 12 13 13 10 5 7 10 11 10 11 14 17 19 16 18 17 18 19 19 23 26 25 24 25
24 22 21 23 24 25 24 23 24 24 25 23 21 20 19 15 14 12 11 9 15 12 7 7 11 13 16 15 14 17 16 16 15 15 14 14 15 18 22 24 26 24 24
24 21 20 24 25 25 25 22 22 22 21 21 20 16 14 13 13 12 10 12 13 10 8 11 12 14 14 13 11 10 13 13 13 13 14 9 8 14 19 21 17 18 20
25 22 20 24 24 24 23 21 21 20 17 16 15 14 13 13 13 11 10 11 13 11 8 8 8 10 8 8 8 8 7 9 11 12 8 8 6 12 17 21 21 19 20
26 23 21 23 25 23 21 21 19 18 16 14 13 13 14 13 11 10 9 11 15 13 8 6 4 4 5 4 4 6 7 7 7 9 10 6 8 10 17 22 20 21 17
27 22 22 22 23 22 20 19 18 18 17 15 13 12 11 11 11 10 9 11 14 14 7 10 5 2 2 3 2 4 6 8 7 5 6 4 4 15 15 24 20 16 13
27 24 24 25 27 25 23 19 19 19 17 15 13 11 10 10 11 10 10 11 13 12 9 9 9 7 4 2 3 3 5 8 7 3 2 3 1 10 19 20 14 13 11
25 26 19 21 23 23 23 21 21 22 20 19 16 12 11 11 11 10 10 10 12 13 12 10 10 11 10 5 6 4 6 8 7 5 3 1 10 10 11 15 12 15 15
25 22 21 22 24 24 23 23 24 21 21 22 17 15 13 12 11 10 10 10 11 12 14 13 13 15 16 12 8 8 8 9 9 9 6 3 10 12 13 15 15 16 13
18 15 13 11 17 18 22 24 29 32 25 19 17 15 13 11 13 14 10 12 12 13 15 15 16 18 18 20 13 12 11 11 10 11 9 9 7 9 11 16 15 16 15
12 10 8 6 4 8 7 5 3 3 25 16 16 15 12 12 13 12 14 15 16 17 17 17 18 19 20 23 21 17 14 14 16 16 14 17 10 7 8 16 20 19 16
10 9 8 9 8 6 6 8 7 3 3 7 10 10 11 13 16 15 15 16 19 19 20 22 21 21 24 23 27 25 21 18 19 20 20 20 15 12 12 16 19 19 21
12 12 12 12 12 11 9 7 5 4 5 7 8 10 15 17 20 21 21 21 22 23 22 24 26 26 26 30 32 26 29 25 20 21 24 27 22 19 19 18 23 22 22
12 11 11 12 12 13 11 9 9 6 4 2 3 7 11 14 17 18 20 21 22 22 23 24 27 28 30 32 35 36 36 33 32 26 24 29 32 26 28 26 22 32 27
17 19 20 22 22 21 17 15 13 9 6 3 3 6 11 14 17 19 21 23 24 25 26 28 28 29 31 35 36 38 40 42 42 39 36 34 36 36 34 37 31 35 37
26 30 32 32 31 27 24 19 15 11 6 5 7 10 12 14 16 17 20 22 24 26 28 29 30 32 33 34 34 37 41 46 47 48 44 39 38 42 41 38 37 30 44
36 37 35 31 26 19 14 8 5 7 10 13 16 18 21 22 25 27 27 27 27 27 26 27 28 29 30 33 37 40 43 42 49 44 52 53 49 45 48 45 38 36 43
37 34 29 24 18 11 4 3 10 13 15 16 18 20 21 24 26 29 32 34 37 36 35 34 33 33 31 32 33 36 43 48 47 44 47 54 52 49 57 53 48 43 46
33 28 23 17 11 5 5 12 16 18 19 20 22 24 26 27 29 30 32 34 37 40 41 41 41 39 38 36 35 35 38 40 46 48 49 48 49 56 62 61 52 49 47
32 26 19 13 7 7 12 18 20 20 22 23 25 26 28 29 31 32 33 34 35 36 40 41 42 42 43 42 39 40 40 42 42 43 46 46 50 60 66 65 61 53 52
32 23 17 12 9 12 16 18 21 25 28 29 29 29 29 30 30 29 29 30 30 32 36 41 42 43 43 45 43 40 45 46 44 42 45 49 50 49 54 67 61 63 54
32 25 18 12 12 15 18 23 29 34 36 36 35 31 29 29 31 31 31 30 28 29 28 30 36 42 40 40 31 24 22 26 41 42 44 46 51 50 54 62 70 63 58
33 26 18 13 13 16 20 26 30 32 33 32 33 32 29 29 30 32 32 33 32 32 30 27 28 32 37 41 41 32 18 21 19 26 44 52 52 56 60 59 62 67 64
33 25 17 13 13 18 22 27 31 33 34 35 36 37 36 32 32 32 34 34 36 36 36 29 29 31 33 39 41 51 50 36 20 20 23 34 46 53 50 53 55 65 60
32 24 16 13 14 19 24 28 32 34 36 38 40 42 40 37 34 35 35 38 40 41 42 39 35 33 34 39 43 42 50 56 51 51 42 24 27 29 36 44 51 51 58
31 21 14 12 14 18 24 28 33 37 38 37 38 40 37 34 31 27 33 39 43 44 45 44 41 42 38 39 44 49 57 50 58 52 48 51 44 37 38 26 24 35 44
Wind_Direction_850mb
162 164 166 165 164 160 151 145 151 163 161 160 155 151 143 144 142 138 132 120 129 119 111 59 72 105 134 123 109 115 116 117 109 109 117 128 133 128 126 123 115 121 120
160 164 169 170 170 167 164 154 149 154 158 159 154 145 143 147 144 151 137 132 140 129 108 81 88 96 113 114 104 104 113 120 116 110 111 116 138 144 134 130 134 130 123
159 160 166 169 169 171 173 168 159 158 155 158 158 161 162 162 160 160 150 147 146 140 111 95 91 101 114 124 126 116 109 121 118 112 107 113 147 153 161 155 152 146 136
162 157 163 171 168 173 175 175 172 168 167 166 168 168 167 163 163 167 169 168 168 160 136 104 86 85 96 114 137 145 144 127 116 114 89 120 110 167 161 156 155 143 135
170 160 171 171 172 172 176 179 180 176 169 175 171 164 163 166 169 166 172 169 172 172 169 147 121 80 75 88 124 155 163 165 150 101 97 118 140 185 177 172 165 148 144
170 172 164 167 175 170 175 180 177 177 183 184 184 179 169 171 175 178 182 180 186 189 192 198 196 192 67 38 115 164 177 172 147 127 95 111 92 196 174 168 160 157 155
174 165 164 164 178 182 183 188 191 192 192 193 187 190 186 187 188 183 184 190 199 207 213 213 225 234 236 345 301 198 208 204 185 193 144 86 174 164 193 192 202 210 191
192 190 176 179 183 181 186 191 194 194 197 199 202 205 198 199 196 200 202 205 212 215 220 235 245 250 236 265 277 251 233 215 196 216 223 192 235 189 175 204 201 167 170
181 186 188 194 195 198 204 206 205 197 192 200 204 209 219 219 212 214 210 214 217 222 225 231 246 255 248 247 262 268 250 231 202 229 228 273 239 216 210 207 200 195 231
145 156 177 199 221 210 225 226 232 214 211 204 209 219 212 218 222 228 226 230 237 232 234 237 249 249 246 243 254 263 265 251 225 232 236 236 249 229 221 215 202 205 206
160 165 175 182 169 153 186 224 319 53 208 201 219 225 225 241 232 231 240 247 251 254 251 254 251 247 243 241 245 254 261 245 234 232 234 245 253 255 230 213 213 210 205
190 206 219 224 220 217 211 225 230 228 233 209 215 236 246 261 263 252 253 259 262 263 269 261 255 251 237 236 247 246 255 242 239 242 240 240 243 243 225 221 214 212 208
209 221 222 226 221 205 190 175 195 216 227 239 237 232 245 252 257 271 270 269 265 268 266 261 255 252 249 240 234 236 249 254 247 247 243 241 241 241 242 225 222 220 216
185 182 177 167 165 163 160 141 128 129 130 149 249 249 252 259 263 267 266 268 270 272 268 262 259 257 250 246 243 243 251 252 255 247 247 242 241 243 240 243 238 235 231
156 146 139 130 128 126 128 120 113 102 82 49 307 289 282 276 272 271 272 270 270 268 267 269 267 262 258 251 248 248 247 250 251 253 253 249 239 238 244 244 246 241 230
143 133 127 125 120 116 112 107 97 82 53 359 325 308 298 292 287 280 274 272 270 270 271 270 270 270 266 259 251 251 251 252 253 257 255 255 243 236 239 248 250 255 228
142 135 131 130 127 125 118 99 54 350 327 310 299 295 289 284 281 279 277 276 274 274 273 273 274 274 274 268 262 249 254 262 256 265 256 254 244 234 236 244 249 251 234
151 147 145 144 146 147 140 346 333 326 320 311 305 295 287 281 276 274 273 271 270 270 269 269 270 273 275 277 272 266 258 254 256 255 255 244 245 233 231 235 238 239 237
163 162 163 167 177 209 291 321 328 330 327 321 312 303 296 290 285 281 277 272 266 264 262 263 265 267 270 271 270 266 265 259 252 252 255 249 246 233 232 232 236 246 246
176 178 182 195 225 280 313 325 329 329 326 322 314 307 300 291 285 281 278 276 273 271 269 263 262 260 260 261 265 265 264 260 256 250 249 247 246 236 237 233 233 242 246
184 188 200 218 251 296 314 319 325 331 330 326 319 313 305 301 295 288 282 281 278 272 270 265 263 261 262 265 268 271 271 263 258 253 248 244 240 240 240 235 238 244 245
193 198 210 231 274 304 319 329 333 332 329 325 321 319 311 303 296 292 290 287 285 283 280 274 267 262 259 256 257 267 274 276 265 249 248 246 240 242 241 243 237 245 250
194 201 212 244 283 306 322 328 330 327 323 318 314 311 310 304 297 291 285 283 282 287 285 276 268 265 257 259 251 243 261 255 271 253 252 248 247 247 254 256 249 242 245
196 204 221 258 289 311 321 326 329 328 326 321 321 317 315 309 301 293 287 281 278 279 284 278 271 264 258 253 254 246 244 247 256 267 279 264 256 252 257 248 253 248 247
195 203 223 252 290 311 321 327 327 328 326 324 322 318 315 310 297 290 287 284 281 279 280 279 270 265 258 255 250 251 251 248 250 254 265 269 264 273 278 254 249 249 249
194 207 228 264 299 313 322 322 322 325 326 325 326 325 324 322 318 304 285 280 280 278 277 275 272 264 261 257 256 252 249 248 249 246 250 253 260 268 265 273 263 259 252